Date String (YYYY-MM-DD hh:mm:ss) UTC,Instrument flags,Ambient pressure (hPa),Sample flow (lpm),Bypass flow (lpm),Sample temperature (°C),Ambient temperature (°C),ASC tube jacket temperature (°C),LED temperature (°C),Box temperature (°C),Sample RH (%),Span deviation,Mass concentration (μg/m³),Mass concentration (μg/m³),Mass concentration (μg/m³)
DateTimeUTC,F1_M11,P_M11,Q1_M11,Q2_M11,T1_M11,T2_M11,T3_M11,T4_M11,T5_M11,U1_M11,ZSPAN_M11,X2_M11,X0_M11,X1_M11
2021-10-16 08:00:00,,0833.2,4.99,0.00,26.3,25.2,00.0,35.4,28.0,08.8,0000.0,0002.82,0007.22,0001.99
2021-10-16 08:01:00,,0833.2,5.01,0.00,26.2,25.2,00.0,35.4,28.0,08.8,0000.0,0002.79,0006.80,0001.99
2021-10-16 08:02:00,,0833.2,4.99,0.00,26.2,25.1,00.0,35.4,28.0,08.8,0000.0,0002.78,0006.94,0001.99
2021-10-16 08:03:00,,0833.3,5.00,0.00,26.2,25.1,00.0,35.4,27.9,08.8,0000.0,0002.82,0006.80,0001.98
2021-10-16 08:04:00,,0833.3,5.01,0.00,26.2,25.1,00.0,35.4,27.9,08.8,0000.0,0002.82,0006.56,0001.99
2021-10-16 08:05:00,,0833.3,4.99,0.00,26.2,25.1,00.0,35.4,27.9,08.8,0000.0,0002.84,0006.60,0001.98
2021-10-16 08:06:00,,0833.5,5.00,0.00,26.2,25.1,00.0,35.4,27.9,08.8,0000.0,0002.85,0006.41,0001.96
2021-10-16 08:07:00,,0833.4,5.01,0.00,26.2,25.1,00.0,35.4,27.9,08.8,0000.0,0002.92,0005.66,0001.96
2021-10-16 08:08:00,,0833.4,5.00,0.00,26.2,25.1,00.0,35.4,27.9,08.8,0000.0,0002.93,0005.68,0001.98
2021-10-16 08:09:00,,0833.4,5.00,0.00,26.2,25.1,00.0,35.3,27.9,08.8,0000.0,0002.90,0005.29,0001.98
2021-10-16 08:10:00,,0833.4,5.00,0.00,26.2,25.1,00.0,35.3,27.9,08.8,0000.0,0002.86,0004.90,0001.98
2021-10-16 08:11:00,,0833.5,5.00,0.00,26.2,25.1,00.0,35.3,27.9,08.8,0000.0,0002.86,0004.93,0001.97
2021-10-16 08:12:00,,0833.5,5.00,0.00,26.1,25.1,00.0,35.3,27.9,08.8,0000.0,0002.86,0005.03,0001.97
2021-10-16 08:13:00,,0833.5,5.00,0.00,26.1,25.1,00.0,35.3,27.9,08.8,0000.0,0002.82,0004.74,0001.97
2021-10-16 08:14:00,,0833.5,5.00,0.00,26.1,25.1,00.0,35.3,27.9,08.8,0000.0,0002.76,0004.44,0001.97
2021-10-16 08:15:00,,0833.5,4.99,0.00,26.1,25.1,00.0,35.3,27.9,08.8,0000.0,0002.72,0004.34,0001.96
2021-10-16 08:16:00,,0833.6,5.00,0.00,26.1,25.1,00.0,35.3,27.9,08.8,0000.0,0002.64,0004.23,0001.95
2021-10-16 08:17:00,,0833.5,5.01,0.00,26.1,25.1,00.0,35.3,27.9,08.8,0000.0,0002.56,0004.03,0001.96
2021-10-16 08:18:00,,0833.5,4.99,0.00,26.1,25.1,00.0,35.3,27.9,08.8,0000.0,0002.45,0003.81,0001.94
2021-10-16 08:19:00,,0833.5,4.99,0.00,26.1,25.1,00.0,35.3,27.9,08.8,0000.0,0002.45,0003.80,0001.93
2021-10-16 08:20:00,,0833.4,5.02,0.00,26.1,25.1,00.0,35.2,27.9,08.8,0000.0,0002.41,0003.73,0001.93
2021-10-16 08:21:00,,0833.4,5.00,0.00,26.1,25.1,00.0,35.2,27.9,08.8,0000.0,0002.42,0003.82,0001.92
2021-10-16 08:22:00,,0833.5,4.99,0.00,26.1,25.1,00.0,35.2,27.9,08.8,0000.0,0002.38,0003.76,0001.91
2021-10-16 08:23:00,,0833.5,5.00,0.00,26.1,25.1,00.0,35.2,27.9,08.8,0000.0,0002.36,0004.49,0001.90
2021-10-16 08:24:00,,0833.5,5.01,0.00,26.1,25.1,00.0,35.2,27.9,08.7,0000.0,0002.43,0004.69,0001.90
2021-10-16 08:25:00,,0833.4,5.01,0.00,26.1,25.1,00.0,35.2,27.8,08.7,0000.0,0002.45,0004.89,0001.88
2021-10-16 08:26:00,,0833.4,5.00,0.00,26.1,25.1,00.0,35.2,27.9,08.7,0000.0,0002.51,0005.10,0001.89
2021-10-16 08:27:00,,0833.4,4.99,0.00,26.1,25.1,00.0,35.2,27.9,08.7,0000.0,0002.59,0005.38,0001.91
2021-10-16 08:28:00,,0833.4,5.00,0.00,26.1,25.1,00.0,35.2,27.9,08.7,0000.0,0002.63,0005.61,0001.91
2021-10-16 08:29:00,,0833.4,5.00,0.00,26.1,25.1,00.0,35.2,27.9,08.7,0000.0,0002.66,0005.68,0001.91
2021-10-16 08:30:00,,0833.4,4.99,0.00,26.1,25.1,00.0,35.2,27.9,08.7,0000.0,0002.58,0005.49,0001.90
2021-10-16 08:31:00,,0833.4,5.00,0.00,26.1,25.1,00.0,35.2,27.9,08.7,0000.0,0002.58,0005.45,0001.90
2021-10-16 08:32:00,,0833.4,5.00,0.00,26.1,25.1,00.0,35.2,27.9,08.7,0000.0,0002.60,0005.44,0001.91
2021-10-16 08:33:00,,0833.4,5.00,0.00,26.1,25.1,00.0,35.2,27.9,08.7,0000.0,0002.62,0005.26,0001.92
2021-10-16 08:34:00,,0833.4,5.01,0.00,26.1,25.1,00.0,35.2,27.9,08.7,0000.0,0002.60,0004.41,0001.91
2021-10-16 08:35:00,,0833.5,4.99,0.00,26.1,25.1,00.0,35.2,27.9,08.7,0000.0,0002.56,0004.32,0001.91
2021-10-16 08:36:00,,0833.5,5.01,0.00,26.1,25.1,00.0,35.2,27.9,08.7,0000.0,0002.58,0004.21,0001.93
2021-10-16 08:37:00,,0833.4,5.01,0.00,26.1,25.1,00.0,35.2,27.9,08.7,0000.0,0002.56,0004.10,0001.93
2021-10-16 08:38:00,,0833.4,5.00,0.00,26.1,25.1,00.0,35.2,27.9,08.7,0000.0,0002.52,0003.85,0001.92
2021-10-16 08:39:00,,0833.5,4.99,0.00,26.1,25.1,00.0,35.2,27.9,08.7,0000.0,0002.51,0003.74,0001.92
2021-10-16 08:40:00,,0833.5,5.00,0.00,26.1,25.1,00.0,35.2,27.8,08.7,0000.0,0002.52,0004.73,0001.91
2021-10-16 08:41:00,,0833.5,4.99,0.00,26.1,25.0,00.0,35.2,27.8,08.7,0000.0,0002.56,0005.53,0001.91
2021-10-16 08:42:00,,0833.6,5.01,0.00,26.0,25.1,00.0,35.2,27.8,08.7,0000.0,0002.54,0005.52,0001.91
2021-10-16 08:43:00,,0833.6,5.00,0.00,26.0,25.1,00.0,35.2,27.8,08.8,0000.0,0002.52,0005.53,0001.90
2021-10-16 08:44:00,,0833.5,5.01,0.00,26.0,25.0,00.0,35.2,27.8,08.7,0000.0,0002.52,0005.89,0001.90
2021-10-16 08:45:00,,0833.6,4.99,0.00,26.0,25.0,00.0,35.2,27.9,08.8,0000.0,0002.60,0006.07,0001.91
2021-10-16 08:46:00,,0833.6,5.01,0.00,26.0,25.1,00.0,35.2,27.9,08.8,0000.0,0002.64,0006.20,0001.93
2021-10-16 08:47:00,,0833.5,5.00,0.00,26.0,25.0,00.0,35.2,27.9,08.8,0000.0,0002.65,0006.37,0001.93
2021-10-16 08:48:00,,0833.6,5.00,0.00,26.1,25.0,00.0,35.2,27.9,08.8,0000.0,0002.67,0007.10,0001.92
2021-10-16 08:49:00,,0833.5,5.01,0.00,26.0,25.0,00.0,35.2,27.9,08.9,0000.0,0002.72,0007.57,0001.92
2021-10-16 08:50:00,,0833.6,4.99,0.00,26.0,25.0,00.0,35.2,27.8,08.9,0000.0,0002.79,0007.69,0001.93
2021-10-16 08:51:00,,0833.5,5.01,0.00,26.0,25.0,00.0,35.2,27.8,08.9,0000.0,0002.79,0007.33,0001.94
2021-10-16 08:52:00,,0833.5,5.00,0.00,26.0,25.0,00.0,35.2,27.8,08.9,0000.0,0002.78,0006.34,0001.95
2021-10-16 08:53:00,,0833.5,4.99,0.00,26.0,25.0,00.0,35.2,27.8,08.9,0000.0,0002.79,0006.36,0001.96
2021-10-16 08:54:00,,0833.5,5.01,0.00,26.0,25.0,00.0,35.1,27.8,09.0,0000.0,0002.77,0006.30,0001.95
2021-10-16 08:55:00,,0833.4,4.99,0.00,26.0,25.0,00.0,35.1,27.8,09.0,0000.0,0002.73,0005.76,0001.95
2021-10-16 08:56:00,,0833.4,5.02,0.00,26.0,24.9,00.0,35.1,27.8,09.0,0000.0,0002.68,0005.66,0001.97
2021-10-16 08:57:00,,0833.4,5.00,0.00,26.0,24.9,00.0,35.1,27.7,09.0,0000.0,0002.64,0005.60,0001.95
2021-10-16 08:58:00,,0833.4,5.00,0.00,26.0,24.9,00.0,35.1,27.7,09.0,0000.0,0002.62,0005.50,0001.94
2021-10-16 08:59:00,,0833.5,5.01,0.00,26.0,24.9,00.0,35.1,27.7,09.0,0000.0,0002.64,0004.93,0001.94
